Regional Weather Roundup
Issued by NWS Raleigh/Durham, NC

Current Version | Previous Version | Text Only | Print | Product List | Glossary On
Versions: 1 2 3 4 5 6 7 8 9 10 11 12 13 14 15 16 17 18 19 20 21 22 23 24 25 26 27 28 29 30 31 32 33 34 35 36 37 38 39 40 41 42 43
000
ASUS42 KRAH 040610
RWRRAH
NORTH CAROLINA WEATHER ROUNDUP
NATIONAL WEATHER SERVICE RALEIGH NC
200 AM EDT TUE OCT 04 2022

NOTE: "FAIR" INDICATES FEW OR NO CLOUDS BELOW 12,000 FEET WITH NO
SIGNIFICANT WEATHER AND/OR OBSTRUCTIONS TO VISIBILITY.

NCZ001-053-055-056-065-067-040700-
WESTERN NORTH CAROLINA

CITY           SKY/WX    TMP DP  RH WIND       PRES   REMARKS
ASHEVILLE      CLEAR     48  46  93 NW3       30.18S
JEFFERSON      CLEAR     45  42  89 CALM      30.17F
HICKORY        CLEAR     52  48  86 CALM      30.14F
RUTHERFORDTON  NOT AVBL
MOUNT AIRY     CLEAR     46  44  93 CALM      30.17S
$$

NCZ021-022-025-041-071-084-088-040700-
CENTRAL NORTH CAROLINA

CITY           SKY/WX    TMP DP  RH WIND       PRES   REMARKS
CHARLOTTE      NOT AVBL
GREENSBORO     PTCLDY    48  44  86 CALM      30.13S
WINSTON-SALEM  CLEAR     48  43  82 NE3       30.15R
RALEIGH-DURHAM CLOUDY    52  44  74 N9        30.12R
FORT BRAGG     CLOUDY    51  46  82 N6        30.08S
FAYETTEVILLE   MOCLDY    51  45  79 N9        30.09F
$$

NCZ011-015-027-028-043-044-047-080-103-040700-
NORTHEASTERN NORTH CAROLINA

CITY           SKY/WX    TMP DP  RH WIND       PRES   REMARKS
ROANOKE RAPIDS CLOUDY    46  46 100 MISG      30.09F
ROCKY MT-WILSO CLOUDY    49  44  83 N14       30.10S
GREENVILLE     CLOUDY    50  50 100 N7        30.07F
ELIZABETH CITY NOT AVBL
MANTEO         CLOUDY    55  50  85 N14G24    29.98F
CAPE HATTERAS  CLOUDY    56  53  90 NW10G22   29.97F
$$

NCZ078-087-090-091-093-098-101-040700-
SOUTHEASTERN NORTH CAROLINA

CITY           SKY/WX    TMP DP  RH WIND       PRES   REMARKS
LUMBERTON      CLEAR     50  45  83 N5        30.10S
GOLDSBORO      CLOUDY    50  44  82 N6        30.06S
KINSTON        CLOUDY    51  47  86 N9        30.08S
KENANSVILLE    CLOUDY    50  46  87 N12       30.08F
NEW BERN       CLOUDY    52  47  83 N10       30.05F
BEAUFORT       CLOUDY    53  49  86 N12G22    30.01F
JACKSONVILLE   CLOUDY    51  48  89 N14       30.04F
WILMINGTON     MOCLDY    52  47  83 N7        30.06S
$$




USA.gov is the U.S. government's official web portal to all federal, state and local government web resources and services.